Starlink 32222

operational
NORAD ID: 60435 Int'l Des: 2024-144 Owner: SPXS Country: US Constellation: starlink
LEOCIRCULAR

Über Starlink 32222

Beschreibung wird geladen...

Live-Position

3D-Globus wird geladen...

Nächste Überflüge

Höhenverlauf

Altitude vs Time

uPlot chart will show altitude changes over time

Zweizeiliger Elementsatz

1 60435U 24144L 25304.72027735 .00024857 00000-0 84782-3 0 9998
2 60435 53.1567 96.1636 0001276 90.5434 269.5713 15.30228808 69565
Epoch: 31. Okt. 2025 • Age: 8 hours

Aktueller Status

Höhe 492.3 km
Geschwindigkeit 7.62 km/s
Subsatellitenpunkt -47.77°S, 13.49°W
Startdatum 12. Aug. 2024
Alter 1.2 years
Typ internet

Technische Details

Klassifizierung Payload
Masse 730.00 kg
Trockenmasse 700.00 kg
Gesamtmasse 730.00 kg
Länge 0.30 m
Durchmesser 4.10 m
Spannweite 29.00 m
Form Box + pan
Hersteller SPXS
Bus-Typ Starlink V2M
Phasenstatus In Orbit
Besitzer/Staat SPXS/US

Große Konstellationen

Loading constellations...